Location: Laverne
(36.7100°N, 99.8930°W)
Time: 05:24:37
(UTC-06:00)

USA 81 - Pass Details

Date: 19 October 2017
Orbit: 785 x 788 km, 85.0° (Epoch: 31 October)

Event Time Altitude Azimuth Distance (km) Brightness Sun altitude
Rises 06:44:24 0° 194° (SSW) 3,264 7.1 -14.1°
Reaches altitude 10° 06:46:48 10° 199° (SSW) 2,339 6.3 -13.6°
Maximum altitude 06:51:56 54° 276° (W) 952 4.1 -12.5°
Drops below altitude 10° 06:57:05 10° 354° (N) 2,352 6.4 -11.5°
Sets 06:59:31 0° 359° (N) 3,285 7.2 -11.0°
